Overview Statistics Trail Chart Weather Telemetry Raw packets
 

This is the latest recevied weather packets stored in our database for station/object KQ4KX. If no packets are shown the sender has not sent any weather packets the latest 10 day(s).

<< 41 42 43 44 45 46 47 >>
Time Temp. Humidity Pressure Rain* Wind** Luminosity Snow
1788344375 25° C 100% 1015.6 hPa 0 mm - - -
1788344217 25.56° C 100% 1015.5 hPa 0 mm - - -
1788344044 25.56° C 100% 1015.5 hPa 0 mm - - -
1788343528 25° C 99% 1015.5 hPa 0 mm - - -
1788343414 25° C 99% 1015.5 hPa 0 mm - - -
1788342453 25° C 99% 1015.5 hPa 0 mm - - -
1788342154 25° C 99% 1015.5 hPa 0 mm - - -
1788341774 33.33° C 70% 1017.1 hPa 0 mm - - -
1788341772 33.33° C 74% 1017.2 hPa 0 mm - - -
1788341771 32.78° C 74% 1017.3 hPa 0 mm - - -
1788341493 25° C 99% 1015.4 hPa 0 mm - - -
1788341350 25° C 99% 1015.5 hPa 0 mm - - -
1788341193 25° C 99% 1015.5 hPa 0 mm - - -
1788340863 25.56° C 99% 1015.5 hPa 0 mm - - -
1788340233 25° C 99% 1015.4 hPa 0 mm - - -
1788339934 25° C 99% 1015.3 hPa 0 mm - - -
1788339699 25° C 99% 1015.3 hPa 0 mm - - -
1788339603 25° C 99% 1015.3 hPa 0 mm - - -
1788339434 25° C 99% 1015.2 hPa 0 mm - - -
1788339273 25° C 99% 1015.2 hPa 0 mm - - -
1788338314 25° C 98% 1015.2 hPa 0 mm - - -
1788338286 25° C 98% 1015.3 hPa 0 mm - - -
1788338013 25° C 98% 1015.3 hPa 0 mm - - -
1788337714 25° C 98% 1015.2 hPa 0 mm - - -
1788336483 25.56° C 98% 1015.2 hPa 0 mm - - -

* Rain latest hour (hover to see other rain measurements)
** Current wind speed in m/s (hover to see current wind gust speed)